Flag for Germany Weather past 2 weeks in Neumünster, Schleswig-Holstein, Germany

Now
64 °F

Scattered clouds.


Feels Like: 64 °F
Forecast: 52 / 77 °F
Wind: 6 mph from West

Location: Itzehoe

Current Time: Jul 6, 2015 at 12:20:34 PM

Latest Report: Jul 6, 2015 at 10:00 AM


Visibility: 9 mi

Pressure: 30.05 "Hg

Humidity: 68%

Dew point: 53 °F

Location of NeumünsterLocation

Historic Weather in Neumünster — Graph

°F

Neumünster temperature yesterday

Maximum temperature yesterday: 82 °F (at 1:00 PM)
Minimum temperature yesterday: 67 °F (at 6:00 AM)
Average temperature yesterday: 73 °F

Past Weeks' High & Low Weather Summary

 TemperatureHumidityPressure
High93 °F (Jul 4, 6:00 PM)100% (Jul 5, 6:00 AM)30.25 "Hg (Jul 5, 6:00 AM)
Low49 °F (Jun 23, 6:00 AM)26% (Jul 2, 4:00 PM)29.65 "Hg (Jun 23, 1:00 AM)
Average64 °F75%30.05 "Hg
* Reported Jun 21 10:00 AM — Jul 6 10:00 AM, Neumünster, Weather by CustomWeather, © 2015

Note: Actual official high and low records may vary slightly from our data, if they occured in-between our weather recording intervals... More about our weather records

Advertising

Neumünster weather history for previous 24 hours

 ConditionsComfort  
Time TempWeatherWind HumidityBarometerVisibility
10:00 AM
Mon, Jul 6
64 °FScattered clouds.6 mph68%30.05 "Hg9 mi
9:00 AM63 °FPartly sunny.5 mph76%30.03 "Hg13 mi
7:00 AM62 °FSunny.5 mph84%30.00 "Hg9 mi
6:00 AM60 °FPartly sunny.5 mph93%29.99 "Hg12 mi
4:00 AM61 °FPassing clouds.3 mph90%29.98 "Hg16 mi
3:00 AM62 °FOvercast.3 mph86%29.98 "Hg19 mi
1:00 AM65 °FPassing clouds.3 mph87%29.93 "Hg16 mi
12:00 AM68 °FPassing clouds.3 mph85%29.90 "Hg10 mi
10:00 PM
Sun, Jul 5
72 °FLow clouds.7 mph97%29.92 "Hg1 mi
9:00 PM74 °FScattered clouds.2 mph92%29.83 "Hg2 mi
7:00 PM76 °FPassing clouds.2 mph92%29.89 "Hg1 mi
6:00 PM77 °FScattered clouds.2 mph89%29.88 "HgN/A
4:00 PM80 °FPassing clouds.1 mph72%29.97 "Hg2 mi
3:00 PM81 °FPassing clouds.2 mph69%30.01 "Hg3 mi
1:00 PM82 °FScattered clouds.2 mph68%30.03 "Hg3 mi
12:00 PM80 °FScattered clouds.1 mph70%30.04 "Hg3 mi
Weather by CustomWeather, © 2015

See weather overviewHow to use our weather pages